This is the latest recevied weather packets stored in our database for station/object W8KJR. If no packets are shown the sender has not sent any weather packets the latest 10 day(s).
| Time | Temp. | Humidity | Pressure | Rain* | Wind** | Luminosity | Snow |
|---|---|---|---|---|---|---|---|
| 1777818598 | 11.67° C | 55% | 1015.6 hPa | 0 mm | - | - | - |
| 1777817695 | 11.11° C | 56% | 1015.5 hPa | 0 mm | - | - | - |
| 1777816790 | 10.56° C | 57% | 1015.9 hPa | 0 mm | - | - | - |
| 1777815889 | 10° C | 57% | 1015.9 hPa | 0 mm | - | - | - |
| 1777814984 | 9.44° C | 57% | 1015.9 hPa | 0 mm | - | - | - |
| 1777814081 | 9.44° C | 58% | 1016 hPa | 0 mm | - | - | - |
| 1777813178 | 8.89° C | 59% | 1015.7 hPa | 0 mm | - | - | - |
| 1777812276 | 8.33° C | 62% | 1016 hPa | 0 mm | - | - | - |
| 1777811374 | 7.78° C | 62% | 1016 hPa | 0 mm | - | - | - |
| 1777810471 | 7.22° C | 63% | 1016.1 hPa | 0 mm | - | - | - |
| 1777809567 | 6.67° C | 65% | 1016.1 hPa | 0 mm | - | - | - |
| 1777808665 | 5.56° C | 66% | 1016 hPa | 0 mm | - | - | - |
| 1777807764 | 3.33° C | 76% | 1015.7 hPa | 0 mm | - | - | - |
| 1777806860 | 2.78° C | 80% | 1015.8 hPa | 0 mm | - | - | - |
| 1777805955 | 1.67° C | 84% | 1015.6 hPa | 0 mm | - | - | - |
| 1777805054 | 1.11° C | 86% | 1015.6 hPa | 0 mm | - | - | - |
| 1777804151 | 1.11° C | 87% | 1015.7 hPa | 0 mm | - | - | - |
| 1777803247 | 1.11° C | 88% | 1015.7 hPa | 0 mm | - | - | - |
| 1777802345 | 1.11° C | 87% | 1015.6 hPa | 0 mm | - | - | - |
| 1777801443 | 0.56° C | 88% | 1015.7 hPa | 0 mm | - | - | - |
| 1777800542 | 0.56° C | 91% | 1015.8 hPa | 0 mm | - | - | - |
| 1777799638 | 0.56° C | 91% | 1015.5 hPa | 0 mm | - | - | - |
| 1777798737 | 0.56° C | 91% | 1015.7 hPa | 0 mm | - | - | - |
| 1777797835 | 0.56° C | 89% | 1015.8 hPa | 0 mm | - | - | - |
| 1777796931 | 0.56° C | 90% | 1015.7 hPa | 0 mm | - | - | - |
* Rain latest hour (hover to see other rain measurements)
** Current wind speed in m/s (hover to see current wind gust speed)